Wind_Speed
112 114 115 117 118 120 121 122 123 123 124 125 125 124 123 123 121 120 118 117 115 113 112 110 109 108 107 106 106 105 104 103 102 101 100 99 99 99 98 98 98 98 98 98 97 97 97 96 96 96 96 96 96 96 96 96 96 96 96 96 96 96 96 96 97 97 97 98 98 99 99 100 100 101 101 101 102 102 102 103 104 106 108 109 109 109
115 117 118 119 120 121 123 123 124 124 124 124 123 122 120 119 117 115 113 112 110 109 107 106 105 104 103 102 102 101 100 100 98 97 97 96 95 95 95 95 95 95 95 94 94 94 94 93 93 93 93 93 93 93 93 93 93 93 93 93 93 93 94 94 94 94 95 95 95 96 96 97 97 98 98 98 98 99 99 100 101 103 104 104 104 104
118 120 121 122 122 123 123 124 124 123 123 121 120 118 116 114 112 110 109 107 106 105 104 103 102 101 100 99 99 98 97 96 95 94 93 93 92 92 91 91 91 91 91 91 91 91 91 90 90 90 90 90 90 90 90 90 90 90 90 90 91 91 91 91 92 92 92 93 93 93 94 94 94 95 95 95 95 96 97 97 99 99 100 100 100 100
121 122 123 123 123 123 123 123 122 121 119 117 115 113 111 109 108 106 105 104 103 102 101 100 99 98 97 96 96 95 94 93 92 91 90 89 89 88 88 88 88 88 88 88 88 88 88 87 87 87 87 87 87 87 87 87 87 87 87 88 88 89 89 89 89 90 90 90 91 91 91 92 92 92 92 92 93 93 94 95 95 96 96 96 96 96
123 123 124 124 123 123 121 120 119 117 115 113 111 109 107 106 104 103 102 101 100 99 98 97 96 95 94 93 93 92 91 90 89 88 87 86 86 85 85 85 85 85 85 85 85 85 85 84 84 84 84 84 84 84 84 84 84 84 85 85 86 86 87 87 87 88 88 89 89 89 89 89 90 90 90 90 90 91 91 92 92 93 93 93 92 92
124 124 123 123 122 121 119 117 115 113 110 108 106 105 103 102 101 100 99 98 97 96 95 94 93 92 91 90 89 88 88 87 86 85 84 84 83 83 83 82 83 82 82 82 82 82 82 81 81 81 81 81 81 81 81 81 81 81 82 82 83 84 84 85 85 85 86 86 87 87 87 88 87 88 88 88 88 88 89 89 90 90 90 90 90 90
124 123 122 121 119 117 115 112 110 108 107 105 103 102 101 100 99 98 97 95 94 93 92 91 90 89 89 88 87 86 85 84 83 82 81 81 81 80 80 80 80 80 80 79 79 79 79 79 79 79 79 79 79 79 79 79 79 79 79 80 80 81 82 82 83 83 84 84 85 85 85 85 85 85 85 85 85 86 86 86 87 87 87 87 87 87
123 121 119 117 115 113 111 108 106 105 103 102 101 99 98 97 96 95 94 93 92 91 89 88 87 87 86 85 84 83 82 81 80 80 79 79 78 78 78 78 78 78 77 77 76 76 76 76 76 76 76 76 76 76 77 76 76 76 77 77 78 78 79 79 80 81 81 82 82 82 83 83 83 83 83 83 83 83 83 84 84 85 85 85 85 85
121 119 116 114 111 109 107 105 103 102 101 100 98 97 95 94 93 92 91 90 89 88 87 86 85 84 83 82 81 80 79 78 78 77 77 77 77 77 76 76 76 75 74 74 73 73 73 73 73 73 73 74 74 74 74 74 74 74 74 75 75 76 76 77 77 78 78 79 79 80 80 81 81 81 80 80 80 81 81 81 82 82 82 83 83 83
117 114 112 110 107 106 104 103 101 100 98 97 96 94 93 91 90 88 87 87 87 86 85 83 82 82 81 80 79 78 77 76 76 76 76 75 75 75 74 74 73 73 72 71 71 71 71 71 71 71 71 72 72 72 72 72 72 72 72 72 73 73 73 74 75 75 76 76 77 77 78 78 78 78 78 78 78 78 79 79 79 80 80 80 81 81
113 110 108 106 104 103 101 100 99 97 96 94 93 91 90 88 87 85 84 84 84 83 82 81 81 80 79 78 77 75 74 74 74 74 74 74 74 73 72 72 71 70 70 69 69 69 69 69 69 69 70 70 70 70 70 70 70 70 70 70 70 70 71 71 72 72 73 74 74 74 75 75 76 76 76 76 76 76 76 77 77 77 78 78 79 80
109 107 105 103 102 100 99 97 96 94 93 91 90 88 87 86 84 83 82 81 81 80 80 79 79 78 77 75 74 73 72 72 72 73 73 73 72 71 70 69 68 68 67 67 67 67 67 67 67 67 68 68 68 68 68 68 68 68 68 68 68 68 68 68 69 69 70 70 71 71 72 72 73 73 73 74 74 74 74 75 75 75 76 77 77 78
105 103 102 101 99 98 97 95 93 92 90 88 87 85 84 83 82 81 80 79 78 78 77 77 77 76 75 74 72 71 70 70 71 71 71 71 70 68 67 66 66 65 65 64 64 65 65 65 65 65 66 65 65 65 65 65 65 65 65 65 65 65 65 65 66 66 66 67 67 68 68 69 69 70 70 71 71 71 72 72 72 73 74 74 75 76
102 101 99 98 97 95 94 92 90 89 87 86 84 83 82 81 80 79 78 77 76 76 75 75 75 74 73 72 70 69 68 69 69 70 69 69 67 66 64 63 63 63 62 62 62 62 62 62 63 63 63 63 62 62 62 62 62 62 62 62 62 62 62 62 63 63 63 63 64 64 65 65 66 66 67 68 68 68 69 69 70 70 71 72 73 74
99 98 97 95 94 93 91 89 87 86 84 83 82 81 80 79 78 77 76 75 75 74 74 73 73 72 71 70 68 67 66 67 67 68 67 66 65 63 61 60 60 60 60 60 60 60 60 60 60 60 60 60 59 59 60 60 60 60 60 59 59 59 59 59 59 60 60 60 61 61 62 62 63 63 64 65 65 66 66 67 67 68 68 69 70 71
97 95 94 92 91 89 88 86 85 83 82 81 80 79 78 77 76 75 74 74 73 72 72 71 71 70 70 68 67 65 65 65 65 65 65 64 62 60 58 58 58 58 58 58 58 57 57 57 57 57 57 57 57 57 57 57 57 57 57 57 57 57 57 57 57 57 57 58 58 58 59 59 60 61 61 62 62 63 63 64 64 65 66 67 68 69
94 93 91 90 88 87 85 84 82 81 80 79 78 77 77 76 75 73 73 72 71 71 70 69 68 68 67 67 65 64 63 63 63 63 62 60 59 57 56 55 56 56 56 56 55 55 55 55 55 55 55 55 54 54 54 54 54 54 54 54 54 54 54 54 55 55 55 55 55 56 56 57 57 58 58 59 60 60 61 61 62 63 63 64 65 66
91 90 89 87 85 84 83 81 80 79 78 77 77 76 75 74 73 72 71 70 69 68 68 67 66 65 65 65 64 63 62 61 60 60 59 58 56 55 54 53 54 54 53 53 53 52 53 53 53 53 52 52 52 52 52 52 52 52 52 52 52 52 52 52 53 53 53 53 53 53 54 54 55 55 56 56 57 58 58 59 59 60 61 61 62 63
89 88 86 85 83 82 81 79 78 77 76 76 75 74 74 73 72 71 70 69 68 67 66 65 64 63 63 62 62 61 60 59 58 58 57 55 54 53 52 52 52 51 51 50 50 50 50 50 51 50 50 50 50 50 50 49 49 50 50 50 50 50 50 50 50 50 51 51 51 51 51 52 52 53 53 54 54 55 56 56 57 57 58 59 60 61
87 86 84 83 81 80 79 78 77 76 75 74 73 73 72 71 70 69 68 67 66 65 64 63 62 61 60 60 59 59 58 57 56 56 55 53 52 51 50 50 49 49 48 48 48 48 48 48 49 48 48 48 48 48 48 48 48 48 48 48 48 48 48 48 48 48 48 48 48 49 49 49 50 50 51 51 52 53 53 54 54 55 55 56 57 58
85 84 82 81 80 78 78 76 75 74 73 73 72 71 70 69 69 67 67 65 64 63 62 61 60 59 58 58 57 57 56 55 54 54 53 52 50 49 48 48 48 47 46 46 46 46 46 46 47 47 46 46 46 46 46 46 46 46 46 46 46 46 46 46 46 46 46 46 46 47 47 47 48 48 49 49 50 50 51 52 52 53 53 54 55 55
83 82 81 79 78 77 76 75 74 73 72 71 70 69 68 68 67 66 65 64 63 61 60 59 58 57 56 55 55 54 54 53 52 51 51 50 49 48 47 46 46 45 45 44 44 44 44 45 45 45 44 44 44 44 44 44 44 44 44 44 44 44 44 44 44 44 44 44 44 45 45 45 46 46 46 47 48 48 49 50 50 51 51 52 52 53
81 80 79 78 77 75 74 73 73 72 71 70 68 67 66 65 64 64 63 62 61 60 59 58 56 55 54 53 53 52 52 51 50 50 49 48 48 47 46 45 44 44 43 43 42 42 43 43 43 43 42 42 42 42 42 42 42 42 42 42 42 42 42 42 42 42 42 42 42 43 43 43 43 44 44 45 46 46 47 47 48 49 49 50 50 51
80 79 78 76 75 74 73 72 71 70 69 68 67 65 65 63 62 61 61 60 59 58 57 56 55 54 53 52 51 51 50 49 49 48 48 47 46 45 45 44 43 42 42 41 41 41 41 41 41 41 40 40 41 41 41 41 41 40 40 40 40 40 40 40 40 40 40 40 41 41 41 41 42 42 42 43 43 44 45 45 46 47 47 48 48 49
78 77 76 75 73 72 71 70 69 68 67 66 65 64 63 61 60 59 59 58 57 56 55 54 53 52 51 50 49 49 48 48 47 46 46 45 45 44 43 42 42 41 40 39 39 39 40 39 39 39 38 38 39 39 39 39 39 39 38 38 38 38 38 38 38 38 38 38 39 39 39 39 40 40 41 41 42 42 43 43 44 45 45 46 47 47
76 75 74 73 71 70 69 68 67 66 65 64 63 62 61 59 58 58 57 56 55 54 53 52 52 51 50 49 48 47 47 46 45 44 44 43 43 43 42 41 40 39 39 38 38 38 38 38 37 37 37 37 37 37 37 37 37 37 37 37 37 37 37 37 37 37 37 37 37 37 37 38 38 38 39 39 40 40 41 42 42 43 43 44 45 46
74 73 72 70 69 68 67 66 64 63 62 61 60 59 58 57 57 56 55 54 53 52 51 50 50 49 48 47 46 46 45 44 44 43 42 41 41 41 40 39 39 38 37 37 36 36 37 36 36 35 35 35 35 35 35 35 35 35 35 35 35 35 35 35 35 35 35 35 35 35 36 36 36 36 37 37 38 39 39 40 40 41 42 42 43 44
72 71 70 68 67 66 64 63 62 61 60 59 58 57 56 55 54 54 53 52 51 50 49 48 48 47 46 45 45 44 44 43 42 42 41 40 40 39 39 38 37 37 36 35 35 35 35 35 35 34 34 33 33 33 33 33 33 33 33 33 33 33 33 33 33 33 33 33 34 34 34 34 34 35 35 36 36 37 37 38 38 39 40 41 41 42
70 69 67 66 65 63 62 61 60 59 58 57 56 55 54 53 52 51 51 50 49 48 47 46 46 45 45 44 44 43 42 42 41 40 39 39 38 38 37 37 36 35 35 34 33 33 33 34 33 33 32 32 32 31 32 32 32 31 31 31 31 31 31 31 31 31 31 32 32 32 32 32 32 33 33 34 34 35 35 36 36 37 38 39 39 40
68 67 65 64 62 61 60 59 57 56 55 54 53 52 51 50 50 49 48 48 47 46 45 44 44 43 43 42 42 42 41 40 39 39 38 37 37 37 36 35 35 34 33 33 32 32 32 32 32 31 31 30 30 30 30 30 30 30 29 29 29 29 29 29 29 29 29 30 30 30 30 30 31 31 31 32 32 33 33 34 35 35 36 37 37 38
66 64 63 61 60 59 57 56 55 54 53 52 51 50 49 48 48 47 46 46 45 44 43 42 42 41 41 41 40 40 40 39 38 37 37 36 36 35 34 34 33 33 32 32 31 30 30 30 30 30 29 29 28 28 28 28 28 28 28 27 27 27 27 27 27 27 27 27 28 28 28 29 29 29 30 30 31 31 32 32 33 34 34 35 35 36
63 62 60 59 58 56 55 54 53 52 51 50 49 48 47 46 45 45 44 44 43 42 42 41 40 40 39 39 38 38 38 38 37 36 35 34 34 34 33 32 32 31 31 30 30 29 29 28 28 28 28 27 27 26 26 26 26 26 26 26 25 25 25 25 25 25 25 25 26 26 26 27 27 27 28 28 29 29 30 31 31 32 32 33 34 34
61 60 58 57 55 54 53 52 51 50 49 48 47 46 45 44 44 43 42 42 41 41 40 40 39 39 38 37 37 37 36 36 35 35 34 33 33 32 31 31 30 30 29 29 29 28 27 27 26 26 26 25 25 25 24 24 24 24 24 24 24 23 23 23 23 23 23 23 24 24 24 25 25 25 26 26 27 28 28 29 29 30 30 31 32 33
59 58 56 55 53 52 51 50 49 48 47 46 45 44 44 43 42 42 41 41 40 39 39 39 38 38 37 37 36 35 35 34 34 33 32 32 31 31 30 29 29 28 28 27 27 27 26 25 24 24 24 23 23 23 23 23 23 22 22 22 22 22 22 21 21 21 21 21 22 22 22 23 23 23 24 25 25 26 26 27 28 28 29 29 30 31
57 56 54 53 51 50 49 48 47 46 45 44 44 43 42 41 41 40 40 39 39 38 38 38 37 37 37 36 35 35 34 33 32 32 31 31 30 29 29 28 27 27 26 26 25 25 24 24 23 22 22 22 22 21 21 21 21 21 21 20 20 20 20 20 20 19 19 19 20 20 20 21 21 21 22 22 23 24 24 25 26 26 27 28 28 30
55 54 52 51 49 48 47 46 45 44 43 43 42 41 41 40 40 39 39 38 38 37 37 36 36 36 35 35 35 34 33 32 32 31 30 29 29 28 28 27 26 26 25 24 24 24 23 22 22 21 21 21 20 20 20 19 19 19 19 19 19 18 18 18 18 18 18 18 18 18 18 18 19 19 20 21 21 22 23 23 24 24 25 26 27 28
53 52 50 49 47 46 45 44 43 43 42 41 40 40 39 39 39 38 37 37 37 36 36 36 35 35 34 34 33 33 32 32 31 30 29 29 28 28 27 27 26 25 24 23 23 22 21 21 20 20 19 19 19 18 18 18 18 18 17 17 17 17 17 16 16 16 16 16 16 16 16 17 17 17 18 19 19 20 21 21 22 23 24 25 26 27
51 49 48 47 45 44 44 43 42 41 40 40 39 39 38 38 37 37 36 36 36 35 35 35 34 34 33 33 32 32 31 30 30 29 28 28 27 27 26 26 25 24 23 22 21 21 20 19 19 19 18 18 17 17 17 16 16 16 16 16 16 15 15 15 15 14 14 14 14 14 14 15 15 16 16 17 18 18 19 20 20 21 22 23 24 26
49 47 46 45 44 43 42 41 40 40 39 39 38 38 37 37 36 36 35 35 35 34 34 34 34 33 33 32 32 31 30 29 28 28 27 27 26 26 25 25 24 23 22 21 20 19 19 18 18 18 17 17 16 15 15 15 15 15 15 15 14 14 14 13 13 13 13 13 12 12 13 13 14 14 15 15 16 17 17 18 19 20 21 22 23 25
47 45 44 43 42 41 40 40 39 39 38 38 37 37 36 36 35 35 34 34 34 33 33 33 33 32 32 32 31 30 29 28 27 27 26 26 25 25 24 23 23 21 20 19 18 18 17 17 16 16 16 15 15 15 14 14 14 14 14 14 13 13 12 12 11 11 11 11 11 11 11 12 12 13 13 14 14 15 16 16 17 18 20 21 23 24
45 44 43 42 41 40 39 39 38 38 37 37 37 36 36 35 35 34 34 33 32 32 32 31 31 31 31 31 30 29 29 27 27 26 25 25 24 24 23 22 21 20 19 18 17 17 16 16 15 15 14 14 14 14 14 14 13 13 13 12 12 11 11 10 10 10 10 9 9 9 10 10 11 11 12 12 13 14 14 15 16 18 19 21 23 24
43 42 41 40 40 39 38 38 38 37 37 36 36 36 36 35 34 34 33 32 32 31 31 30 30 30 29 29 29 28 28 27 26 25 24 24 23 23 22 21 20 19 18 17 16 15 15 14 14 13 13 13 13 13 13 13 12 12 12 11 11 10 9 9 9 8 8 8 8 8 8 9 10 10 11 11 12 13 13 14 16 17 19 21 23 24
42 41 40 39 39 38 38 37 37 36 36 36 36 35 35 34 34 33 33 32 31 30 30 29 29 28 28 28 28 27 27 26 25 24 24 23 22 22 21 20 19 18 17 16 15 14 14 13 13 13 12 12 12 12 12 12 11 11 11 10 9 9 8 7 7 7 7 7 7 7 7 8 8 9 10 10 11 12 13 14 15 17 19 21 23 25
41 40 39 39 38 37 37 36 36 35 35 35 35 34 34 34 33 33 32 32 31 30 29 28 28 28 27 27 27 26 26 25 24 24 23 22 21 21 20 19 18 17 16 15 14 13 13 12 12 12 11 11 11 11 11 11 10 10 9 9 8 7 7 6 6 6 5 5 6 6 6 7 7 8 9 10 11 12 13 14 16 17 19 21 23 25
40 39 38 38 37 37 36 35 35 35 34 34 34 33 33 33 32 32 31 31 30 30 29 28 27 27 26 26 26 25 25 24 24 23 22 21 21 20 19 18 17 16 15 14 13 12 12 11 11 11 10 10 10 11 10 10 10 9 8 8 7 6 6 5 5 5 4 4 5 5 5 6 7 8 9 10 11 12 13 15 16 18 20 21 23 25
39 39 38 37 37 36 35 35 34 34 34 33 33 32 32 31 31 31 30 30 29 29 28 27 27 26 26 26 25 25 24 24 23 22 21 21 20 19 19 18 17 16 14 13 12 12 11 10 10 10 10 10 10 10 10 9 9 8 8 7 6 5 5 4 4 4 4 4 4 4 5 6 6 7 8 10 11 12 14 15 17 18 20 22 24 26
39 38 37 37 36 35 35 34 34 33 33 32 32 31 31 31 30 30 29 29 29 28 27 27 26 26 25 25 25 25 24 24 23 22 21 20 19 19 18 17 16 15 13 12 11 11 10 10 9 9 9 9 9 9 9 9 8 8 7 6 5 5 4 3 3 3 3 3 4 4 5 6 6 8 9 10 11 13 14 16 17 19 20 22 24 26
38 38 37 36 35 35 34 33 33 32 32 32 31 31 30 30 30 29 29 28 28 27 26 26 25 25 25 25 25 25 24 24 23 22 21 20 19 18 17 17 16 14 13 12 11 10 9 9 9 9 8 8 8 8 8 8 8 7 6 5 5 4 3 3 3 3 3 4 4 5 5 6 7 8 9 10 12 13 14 16 17 19 21 22 24 26
38 37 36 35 35 34 33 33 32 32 31 31 30 30 30 29 29 29 28 27 27 26 26 25 24 24 24 24 24 24 24 24 23 22 21 20 19 18 17 16 15 14 12 11 10 9 9 8 8 8 8 8 8 8 8 7 7 6 5 5 4 4 3 3 3 3 3 4 5 5 6 7 8 9 10 11 12 13 15 16 18 19 21 23 24 26
37 37 36 35 34 33 33 32 32 31 31 30 30 29 29 29 28 28 28 27 26 26 25 24 24 24 23 23 23 23 23 23 23 22 21 19 18 17 17 16 15 14 12 10 9 8 7 7 7 7 7 7 7 7 7 7 6 6 5 4 3 3 3 2 3 3 4 4 5 6 7 7 8 9 10 11 12 14 15 16 18 20 21 23 25 26
37 36 35 34 34 33 32 32 32 31 31 30 30 29 29 28 28 27 27 26 26 25 24 24 23 23 23 23 23 23 23 22 22 21 21 19 18 17 16 16 15 14 12 10 8 7 6 6 6 6 6 6 6 6 6 6 6 5 5 4 3 2 2 3 3 3 4 5 6 6 7 8 9 10 11 12 13 14 15 17 18 20 21 23 25 26
Wind_Direction
299 299 298 298 298 298 297 297 296 295 295 294 294 293 293 293 292 292 291 290 290 289 288 288 287 287 287 286 286 286 285 285 285 284 284 283 283 282 282 281 281 280 279 279 278 277 277 276 276 275 275 274 274 273 273 272 272 271 271 270 270 269 268 267 267 266 265 265 264 263 263 262 262 261 260 260 259 259 258 258 257 256 256 255 255 254
300 300 299 299 299 298 298 297 297 296 296 295 295 294 294 293 293 292 291 291 290 290 289 289 288 288 287 287 287 286 286 286 285 285 284 284 283 282 282 281 281 280 279 279 278 277 277 276 275 275 274 274 274 273 273 272 272 271 271 270 269 269 268 267 266 266 265 264 264 263 262 262 261 261 260 260 259 259 258 257 257 256 256 255 255 255
301 300 300 300 299 299 298 298 297 297 296 296 295 295 294 294 293 293 292 291 291 290 290 290 289 289 288 288 288 287 287 286 286 285 285 284 283 282 282 281 280 280 279 278 278 277 277 276 275 275 274 274 273 273 272 272 271 271 270 269 269 268 267 267 266 266 265 264 263 263 262 261 261 260 260 259 259 258 258 257 257 256 256 256 256 255
302 301 300 300 300 299 299 298 298 297 297 296 296 295 295 294 293 293 292 292 291 291 291 290 290 290 289 289 288 288 287 287 286 285 285 284 283 283 282 281 280 280 279 278 278 277 277 276 276 275 274 274 273 273 272 271 271 270 270 269 268 268 267 267 266 265 265 264 263 263 262 261 261 260 260 259 258 258 257 257 257 256 256 256 255 255
302 302 301 301 300 300 300 299 298 298 297 297 296 296 295 294 294 293 293 292 292 292 292 291 291 290 290 289 288 288 287 287 286 286 285 284 284 283 282 281 280 279 279 278 278 277 277 276 276 275 274 274 273 272 272 271 270 270 269 269 268 267 267 266 266 265 265 264 263 263 262 262 261 260 260 259 259 258 257 257 257 256 256 256 255 255
302 302 302 301 301 301 300 300 299 298 298 297 296 296 295 295 294 294 294 293 293 293 292 292 291 291 290 289 289 288 288 287 287 286 285 285 284 283 282 281 280 279 279 278 278 277 277 276 276 275 275 274 273 272 272 271 270 270 269 268 268 267 267 266 265 265 264 264 263 263 262 262 261 261 260 259 259 258 258 257 257 256 256 256 255 254
303 303 303 302 302 301 301 300 299 299 298 297 297 296 296 295 295 295 295 294 294 293 293 292 291 291 290 290 289 289 288 288 287 286 286 285 284 283 282 281 280 280 279 278 278 278 277 277 276 275 275 274 273 273 272 271 270 269 269 268 267 267 266 266 265 265 264 264 264 263 263 262 262 261 260 260 259 259 258 258 257 257 256 255 255 254
304 303 303 303 302 301 301 300 299 299 298 297 297 296 296 296 296 296 296 295 294 294 293 292 292 291 291 290 289 289 289 288 288 287 286 285 284 283 282 281 281 280 280 279 279 278 278 277 276 276 275 274 274 273 272 271 270 269 269 268 267 267 266 266 265 265 264 264 264 263 263 262 262 261 261 260 259 259 258 258 257 257 256 255 255 254
304 304 303 303 302 302 301 300 299 299 298 298 297 297 297 297 297 296 296 295 295 294 293 293 292 292 291 290 290 290 289 289 288 287 287 285 284 283 283 282 281 281 280 280 279 279 278 277 277 276 275 274 274 273 272 271 270 269 269 268 267 267 266 266 265 265 264 264 263 263 263 262 262 262 261 260 259 259 258 257 257 256 256 255 255 254
305 304 304 303 302 301 301 300 299 299 298 298 298 298 298 298 297 297 296 295 295 294 294 293 292 292 291 291 291 290 290 289 289 288 287 286 285 284 283 283 282 282 282 281 281 280 279 278 277 276 275 275 274 273 272 271 271 270 269 268 268 267 266 266 265 265 264 264 263 263 263 262 262 261 261 260 259 258 258 257 256 256 255 255 254 253
305 304 304 303 302 301 301 300 300 299 299 299 299 299 298 298 297 297 296 295 295 294 294 293 293 292 292 291 291 291 291 290 289 288 287 286 285 284 284 284 284 283 283 283 282 281 280 279 278 277 276 275 274 273 273 272 271 271 270 269 268 267 266 266 265 265 264 264 263 263 262 262 261 261 260 260 259 258 257 257 256 255 254 254 253 252
305 304 304 303 302 301 301 300 300 300 300 300 300 299 299 298 297 297 296 295 295 294 294 294 293 293 292 292 292 292 291 290 289 288 287 286 285 285 285 285 285 285 284 284 282 281 280 279 278 277 276 275 274 274 273 273 272 271 270 269 268 268 267 266 265 265 264 264 263 263 262 262 261 261 260 259 259 258 257 256 255 254 254 253 252 252
305 304 303 303 302 301 301 301 301 301 301 301 300 300 299 298 297 297 296 296 295 295 294 294 293 293 293 292 292 292 291 291 289 288 287 287 286 286 287 287 286 286 285 284 282 281 280 279 278 277 277 276 275 275 274 273 272 272 271 270 269 268 267 266 266 265 264 264 263 263 262 262 261 260 260 259 258 257 256 256 255 254 253 252 252 251
305 304 303 303 302 302 301 301 301 301 301 301 301 300 299 298 298 297 297 296 296 295 295 294 294 294 293 293 293 293 292 291 289 288 288 288 288 288 288 288 287 286 285 283 282 281 280 279 279 278 277 277 276 275 275 274 273 272 271 270 270 269 268 267 266 265 265 264 263 262 262 261 260 260 259 258 257 257 256 255 254 253 252 251 251 250
305 304 303 303 302 302 302 302 302 302 302 301 301 300 299 298 298 297 297 296 296 296 295 295 294 294 294 293 293 293 292 291 290 289 289 289 289 289 289 289 288 286 284 283 282 281 281 280 279 279 278 278 277 276 275 274 273 273 272 271 270 269 268 267 266 265 264 264 263 262 261 260 260 259 258 257 256 256 255 254 253 252 251 250 250 249
305 304 303 303 303 303 303 303 303 302 302 301 300 300 299 298 298 298 297 297 297 296 296 295 295 295 295 294 294 293 292 291 291 290 290 290 290 290 290 289 287 286 284 283 283 282 282 281 280 279 279 278 277 276 275 275 274 273 273 272 271 270 269 268 267 265 264 264 262 262 261 260 259 258 257 256 256 255 254 253 252 251 250 249 248 248
305 304 304 304 304 304 304 303 303 303 302 301 300 299 299 299 298 298 298 297 297 297 296 296 296 296 295 295 294 294 293 292 292 291 291 291 291 291 290 289 287 286 285 285 284 283 283 282 281 280 279 278 277 277 276 275 275 274 273 272 271 270 269 268 267 266 265 264 263 262 261 260 259 258 257 256 255 254 253 252 251 250 249 248 247 247
305 305 305 305 305 304 304 304 303 302 302 301 300 300 299 299 299 299 298 298 298 297 297 297 297 296 296 296 295 295 294 293 293 292 292 292 292 291 290 289 287 287 286 286 285 284 283 282 281 281 280 279 278 277 276 276 275 274 273 272 271 270 269 268 267 266 265 264 263 262 261 260 259 258 257 256 255 254 253 252 251 250 249 248 247 246
306 305 305 305 305 305 304 304 303 302 302 301 301 300 300 300 300 299 299 299 298 298 298 298 297 297 297 296 296 296 295 295 294 294 293 293 293 292 291 290 289 288 287 287 286 285 284 283 282 281 280 280 279 278 277 276 275 274 273 272 271 270 270 269 268 267 266 265 264 263 262 261 259 259 258 256 256 254 254 252 251 250 249 248 247 246
306 306 306 306 306 305 304 304 303 303 302 301 301 301 300 300 300 300 300 299 299 299 299 298 298 298 298 297 297 296 296 296 295 295 295 294 294 293 292 291 290 289 288 287 286 285 284 283 283 282 281 280 280 279 278 277 276 275 274 273 272 271 270 269 268 268 267 266 265 263 262 261 260 259 258 257 256 254 253 252 251 250 249 248 246 245
307 307 306 306 306 305 304 304 303 303 302 302 302 301 301 301 301 301 300 300 300 300 299 299 299 299 299 298 298 297 297 297 297 296 296 295 295 294 293 292 291 290 289 288 287 286 285 284 283 283 282 281 280 279 278 277 276 275 274 273 272 272 271 270 269 268 267 266 265 264 263 261 260 259 258 256 255 254 253 252 251 250 248 247 246 245
308 307 307 306 306 305 305 304 304 303 303 302 302 302 302 302 302 301 301 301 301 301 301 301 300 300 300 299 299 299 298 298 298 297 297 296 295 294 294 293 292 291 290 289 288 287 286 285 284 283 282 282 281 280 279 278 277 276 275 274 273 272 271 270 269 268 267 266 265 264 263 261 260 259 258 256 255 254 253 252 251 250 248 247 246 244
308 307 307 306 306 305 305 304 304 303 303 303 303 303 303 302 302 302 302 302 302 302 302 302 302 301 301 301 300 300 299 299 299 298 298 297 296 295 294 293 293 292 291 290 289 287 286 285 284 283 283 282 281 280 280 279 278 277 276 275 274 273 272 271 270 269 268 267 265 264 263 262 260 259 258 256 255 254 253 251 250 249 248 247 245 244
308 307 307 306 306 306 305 305 304 304 304 304 304 304 303 303 303 303 303 303 303 303 303 303 303 302 302 302 301 301 300 300 299 298 298 297 296 296 295 294 293 292 291 290 289 288 287 286 285 284 283 283 282 281 280 279 279 278 277 276 275 274 273 271 270 269 268 267 265 264 263 262 260 259 258 256 255 253 252 251 250 249 248 246 245 244
308 307 307 307 306 306 306 305 305 305 305 305 305 304 304 304 304 304 304 304 304 304 304 304 304 303 303 302 302 301 300 299 299 298 298 297 297 296 295 295 294 293 292 291 290 288 287 286 285 285 284 283 282 281 280 280 279 278 277 276 275 274 273 272 271 270 269 267 266 264 263 262 260 259 258 256 255 253 252 251 249 248 247 246 245 243
308 308 307 307 307 307 306 306 306 306 306 305 305 305 305 305 305 305 305 305 305 305 305 304 304 303 303 302 302 301 300 299 299 298 298 298 297 296 296 295 294 294 293 291 290 289 288 287 286 285 284 283 282 282 281 280 279 278 277 276 275 275 274 273 272 270 269 268 266 265 263 262 260 259 257 256 255 253 252 250 249 248 247 245 244 243
309 308 308 308 307 307 307 307 307 307 307 306 306 306 306 306 306 306 306 305 305 305 305 304 304 303 303 302 302 301 300 300 300 299 299 298 298 297 296 296 295 294 293 292 291 290 289 288 287 286 285 284 283 282 281 280 279 278 277 277 276 275 274 273 272 271 270 268 267 265 264 262 260 259 257 256 254 253 251 250 248 247 246 245 244 242
309 309 309 308 308 308 308 308 308 307 307 307 307 307 307 307 306 306 306 305 305 305 304 304 304 304 303 303 302 301 301 301 301 300 300 299 299 298 297 297 296 295 294 293 292 290 289 288 287 287 286 285 284 283 282 281 280 279 278 277 277 275 274 273 272 271 270 268 267 266 264 262 261 259 257 256 254 253 251 250 248 247 245 244 243 242
310 309 309 309 309 309 309 309 308 308 308 308 307 307 307 307 307 306 306 305 305 305 305 304 304 304 303 303 303 302 302 302 302 302 301 301 300 299 298 297 297 296 295 293 292 291 290 289 289 288 287 286 285 284 283 282 281 281 280 278 277 276 275 273 272 271 270 268 267 266 264 263 261 259 258 256 254 253 251 250 248 246 245 243 242 241
310 310 310 310 310 310 310 309 309 309 308 308 308 308 307 307 306 306 306 306 305 305 305 305 304 304 304 304 303 303 303 303 303 303 302 302 301 300 299 298 297 296 296 294 293 292 291 290 290 289 288 287 286 285 284 284 283 282 281 279 278 277 275 274 272 271 270 269 267 266 264 263 261 260 258 256 255 253 252 250 248 246 244 243 241 240
311 311 311 311 311 311 310 310 309 309 309 308 308 308 307 307 307 306 306 305 305 305 305 305 305 304 304 304 304 304 303 303 303 303 302 302 301 300 299 298 298 297 297 296 295 294 292 291 291 290 290 289 288 287 286 285 284 283 282 280 279 278 276 275 273 272 270 269 267 266 264 263 261 260 258 257 255 253 251 250 248 246 244 242 240 238
312 312 312 312 312 311 311 310 310 309 309 309 308 308 308 307 307 306 306 306 306 306 306 305 305 305 305 304 304 304 304 304 303 303 303 301 301 300 300 299 298 298 297 296 296 295 294 293 292 291 291 290 290 289 288 286 285 284 283 282 281 279 277 276 274 272 271 269 268 266 264 263 261 259 258 256 255 253 251 249 247 245 243 241 239 237
313 313 313 313 312 312 311 311 310 310 309 309 309 308 308 307 307 307 307 307 307 307 307 306 306 305 305 304 304 304 304 304 304 304 303 302 301 300 300 299 299 298 298 297 297 296 295 294 293 293 293 292 291 290 289 288 287 286 284 283 282 280 279 277 275 273 271 270 268 266 264 263 261 259 257 256 254 252 250 248 246 244 242 240 237 235
314 314 314 313 313 312 312 311 311 310 310 310 309 309 309 308 308 308 308 308 308 308 308 307 307 306 306 305 305 304 304 304 304 304 303 302 302 301 301 300 299 299 299 298 298 297 296 296 295 295 294 293 292 291 290 289 288 287 286 284 283 281 280 278 276 275 272 271 268 267 265 263 261 259 257 255 253 251 249 247 245 242 240 237 235 233
314 314 314 314 313 313 312 312 311 311 311 310 310 310 309 309 309 309 309 309 309 309 308 308 308 307 307 306 306 305 305 305 305 304 304 304 303 302 302 301 300 300 299 299 299 298 298 298 297 296 295 294 293 292 291 290 289 288 287 286 284 283 281 279 278 275 274 271 269 267 266 264 261 259 257 255 252 250 247 245 243 240 238 235 233 230
315 315 315 314 314 313 313 312 312 312 311 311 311 311 310 310 310 310 310 310 310 310 309 309 308 308 307 307 307 306 306 306 306 306 305 305 304 304 303 302 302 301 301 300 300 299 299 299 297 296 295 294 293 293 292 292 291 290 289 287 286 284 282 281 279 277 275 273 271 268 266 264 262 260 257 254 252 249 246 243 240 238 235 232 229 227
316 316 315 315 314 314 313 313 313 312 312 312 312 311 311 311 311 311 311 311 310 310 310 309 309 309 308 308 308 307 307 307 307 307 307 306 306 305 304 304 303 302 302 301 300 300 299 298 297 296 295 294 294 294 295 294 293 292 291 289 288 286 284 282 280 278 276 273 271 269 267 265 262 259 257 254 250 247 244 240 237 234 231 228 226 223
316 316 316 315 315 314 314 314 313 313 313 312 312 312 312 312 312 312 311 311 311 310 310 310 309 309 309 309 308 308 308 308 308 308 308 307 307 306 305 304 304 303 302 301 301 300 299 299 297 296 295 295 295 297 297 297 297 295 294 291 289 287 285 283 281 278 276 274 272 269 267 264 261 258 255 252 248 245 241 237 234 230 227 224 222 219
317 316 316 316 315 315 315 314 314 314 313 313 313 312 312 312 312 312 311 311 311 311 311 311 310 310 310 309 309 309 309 309 309 309 309 308 308 307 306 304 304 302 302 301 301 299 299 298 298 297 297 298 298 299 300 300 299 298 295 292 290 288 286 284 282 279 276 274 272 269 267 263 260 257 253 249 245 241 237 233 229 226 223 220 217 214
317 317 316 316 316 316 315 315 315 314 314 313 313 312 312 312 311 311 311 311 311 311 311 311 311 311 311 311 310 310 310 310 310 310 310 310 309 308 306 305 304 303 302 302 301 300 299 298 299 299 300 301 302 303 303 303 301 299 296 293 291 288 286 284 282 279 277 274 272 269 265 262 258 254 250 245 241 237 232 228 225 221 218 215 212 209
317 317 317 316 316 316 316 315 315 315 314 314 313 313 312 312 311 311 311 311 311 311 311 311 311 311 311 311 311 311 311 311 311 311 311 311 310 309 307 305 305 303 303 302 301 301 300 301 301 302 304 305 305 306 305 304 302 299 296 293 290 288 286 285 282 280 277 274 270 267 264 259 255 251 245 241 236 231 226 222 219 216 213 210 207 204
317 317 317 316 316 316 316 316 315 315 314 314 313 313 312 312 311 311 310 310 310 310 310 310 310 310 310 310 311 311 311 312 312 312 312 312 311 310 308 307 306 305 304 303 303 303 302 303 305 306 308 309 308 307 306 304 302 299 296 293 290 288 286 284 281 279 276 273 269 265 260 256 250 246 240 234 229 224 219 215 212 210 207 205 201 199
317 317 317 317 317 316 316 316 315 314 314 313 313 312 312 312 312 311 311 310 310 310 310 310 310 310 310 310 310 311 312 312 313 313 313 313 313 311 310 309 308 307 306 305 304 304 305 306 307 309 310 310 309 308 306 305 302 299 296 293 290 287 285 283 280 277 273 270 266 261 256 250 244 238 232 226 220 216 211 207 204 203 201 199 196 194
317 317 317 317 316 316 316 315 314 314 313 313 312 312 312 312 312 312 312 311 311 311 310 310 310 310 310 311 311 312 313 313 313 314 314 314 314 313 312 310 309 308 307 306 306 305 306 307 309 310 310 310 310 308 306 304 302 299 296 293 289 286 282 280 277 273 270 265 260 254 247 241 236 229 223 217 211 207 202 199 197 196 195 194 192 189
317 317 317 317 316 316 315 314 314 313 313 313 312 312 312 312 313 313 312 312 312 311 311 311 311 311 311 312 312 312 313 313 314 314 315 315 315 314 313 312 310 309 308 308 307 307 307 308 309 310 310 310 310 309 307 305 301 298 295 290 286 282 278 274 270 267 262 257 251 243 237 230 225 218 212 207 202 198 194 191 190 189 188 188 187 185
317 317 317 316 316 315 315 314 314 313 313 312 312 312 312 313 313 313 313 313 312 312 312 312 313 313 313 313 313 314 313 313 313 314 315 315 315 315 314 313 311 309 309 309 308 308 308 308 309 310 311 311 311 310 308 305 302 298 294 289 283 278 274 267 262 256 249 241 234 228 221 215 211 207 202 197 194 190 187 185 183 183 183 183 182 181
317 317 317 316 316 315 315 314 314 313 313 313 313 313 313 314 314 314 314 313 313 313 313 314 314 314 315 315 315 315 315 315 314 314 315 316 316 316 315 313 311 310 309 309 309 310 309 309 309 310 312 313 312 311 309 305 302 298 292 287 282 274 264 254 246 240 232 225 218 211 205 201 198 194 192 189 185 183 180 178 178 177 177 178 178 177
318 317 317 316 316 315 315 314 314 314 313 313 314 314 314 315 314 315 314 314 314 314 314 314 315 316 316 316 316 316 316 316 315 315 315 316 317 317 316 314 311 309 309 309 310 311 311 309 309 310 312 314 313 311 309 306 302 297 291 284 276 268 258 242 232 221 213 205 200 193 191 188 186 184 182 180 178 176 175 173 173 172 173 173 173 174
318 317 317 317 316 316 315 315 315 315 315 315 315 315 316 316 316 315 315 315 315 315 315 315 316 316 317 317 317 317 317 316 316 315 315 316 317 318 317 315 312 309 307 308 310 311 311 310 309 309 310 313 314 313 310 306 301 296 289 281 273 262 248 230 216 206 198 193 187 182 180 177 177 175 174 173 172 171 170 169 168 169 169 169 170 170
318 318 317 317 317 317 317 317 317 317 316 316 317 317 316 316 316 316 316 316 316 316 316 316 317 317 317 317 318 317 317 316 316 315 315 316 317 318 318 316 312 308 305 305 308 310 312 312 312 310 310 311 313 313 312 307 302 293 287 280 268 256 237 216 203 196 189 182 180 176 173 170 170 169 168 167 167 167 166 166 166 166 166 167 167 167
318 318 318 318 318 318 318 318 318 318 318 318 318 317 317 317 316 316 316 316 316 317 317 317 318 318 318 318 318 318 317 317 316 315 314 315 317 318 318 316 312 308 304 304 307 309 311 314 314 314 314 313 313 313 313 307 301 294 285 275 260 243 219 203 190 186 181 178 175 171 167 166 165 164 164 163 163 163 163 163 163 164 164 164 165 165
Height
10314 10309 10304 10299 10295 10291 10284 10276 10271 10267 10261 10254 10247 10241 10236 10232 10227 10222 10217 10213 10208 10204 10200 10196 10194 10191 10187 10184 10181 10178 10176 10173 10172 10171 10169 10167 10165 10162 10160 10157 10155 10153 10151 10149 10148 10147 10145 10144 10143 10142 10141 10140 10139 10138 10137 10137 10137 10137 10137 10137 10137 10137 10137 10138 10139 10139 10140 10141 10141 10142 10142 10143 10144 10144 10146 10148 10150 10152 10155 10158 10159 10160 10161 10161 10164 10166
10302 10296 10291 10285 10281 10278 10272 10264 10257 10251 10246 10240 10233 10227 10222 10218 10213 10209 10204 10199 10195 10191 10187 10184 10181 10179 10176 10173 10170 10167 10164 10162 10161 10159 10157 10156 10154 10151 10149 10147 10144 10142 10140 10138 10137 10136 10134 10133 10132 10131 10131 10130 10129 10128 10127 10127 10127 10127 10127 10127 10126 10126 10126 10126 10126 10127 10127 10128 10129 10129 10131 10131 10132 10133 10134 10137 10139 10141 10144 10145 10146 10147 10147 10150 10152 10156
10289 10284 10278 10271 10267 10263 10258 10251 10244 10237 10231 10225 10219 10214 10209 10204 10200 10196 10191 10187 10183 10179 10176 10173 10170 10167 10165 10162 10159 10157 10154 10152 10150 10149 10147 10145 10143 10141 10139 10136 10134 10132 10129 10127 10126 10125 10124 10123 10122 10121 10121 10120 10119 10118 10117 10117 10117 10117 10116 10116 10115 10114 10114 10114 10114 10115 10116 10116 10116 10117 10119 10119 10121 10122 10123 10125 10127 10129 10131 10132 10133 10135 10137 10139 10143 10147
10276 10271 10265 10259 10253 10248 10243 10237 10230 10223 10216 10211 10206 10201 10197 10192 10187 10183 10179 10176 10172 10168 10166 10162 10159 10157 10154 10151 10149 10146 10144 10141 10139 10138 10136 10134 10132 10131 10128 10126 10124 10121 10119 10117 10116 10115 10114 10113 10112 10112 10111 10110 10109 10108 10108 10108 10107 10107 10106 10105 10104 10104 10104 10104 10104 10104 10105 10105 10106 10106 10107 10109 10110 10111 10113 10115 10117 10118 10120 10121 10122 10124 10127 10130 10134 10137
10261 10257 10252 10246 10240 10234 10227 10222 10216 10210 10204 10199 10194 10189 10185 10180 10176 10172 10168 10165 10162 10158 10155 10152 10149 10146 10143 10141 10138 10136 10134 10132 10130 10128 10126 10124 10122 10121 10118 10116 10114 10112 10110 10108 10107 10106 10105 10104 10103 10102 10101 10101 10099 10099 10099 10099 10099 10097 10097 10096 10095 10095 10094 10094 10094 10094 10094 10095 10095 10096 10097 10098 10100 10101 10103 10104 10106 10108 10110 10111 10113 10115 10117 10121 10124 10127
10248 10243 10237 10232 10227 10221 10214 10208 10203 10197 10191 10186 10182 10178 10174 10169 10165 10161 10158 10154 10151 10148 10145 10142 10139 10136 10133 10131 10128 10126 10124 10122 10121 10119 10117 10114 10112 10111 10108 10106 10104 10102 10101 10099 10098 10097 10096 10095 10094 10093 10092 10091 10091 10089 10089 10089 10089 10089 10087 10087 10086 10086 10085 10085 10085 10085 10085 10085 10086 10086 10087 10089 10090 10092 10094 10096 10097 10099 10101 10102 10104 10106 10108 10111 10114 10117
10234 10229 10224 10219 10213 10207 10201 10196 10191 10185 10179 10174 10171 10167 10164 10159 10155 10151 10148 10144 10141 10138 10135 10132 10129 10126 10123 10121 10119 10117 10116 10113 10111 10109 10107 10105 10103 10101 10099 10096 10094 10093 10091 10091 10089 10089 10087 10086 10085 10084 10084 10082 10082 10081 10080 10080 10080 10079 10079 10078 10077 10077 10076 10076 10076 10076 10076 10076 10077 10077 10078 10079 10081 10083 10085 10087 10088 10090 10092 10093 10095 10097 10099 10102 10104 10107
10222 10217 10211 10205 10199 10194 10189 10183 10179 10174 10169 10164 10160 10157 10154 10150 10146 10142 10138 10134 10131 10127 10125 10122 10120 10117 10114 10111 10109 10108 10106 10104 10102 10100 10097 10096 10093 10091 10089 10087 10086 10084 10083 10082 10081 10081 10079 10078 10077 10076 10076 10074 10072 10072 10071 10071 10071 10071 10070 10069 10069 10069 10068 10068 10067 10067 10068 10068 10068 10069 10070 10071 10072 10074 10076 10077 10079 10081 10083 10084 10086 10088 10090 10092 10096 10099
10210 10204 10199 10193 10187 10182 10177 10171 10167 10163 10159 10154 10151 10147 10144 10141 10138 10134 10130 10125 10121 10117 10116 10114 10111 10108 10105 10102 10101 10099 10098 10096 10094 10091 10088 10086 10083 10081 10079 10078 10077 10076 10075 10074 10073 10072 10071 10070 10069 10068 10066 10065 10064 10062 10062 10061 10061 10061 10061 10061 10061 10061 10060 10060 10060 10060 10060 10060 10061 10061 10062 10062 10064 10066 10067 10069 10071 10072 10074 10076 10077 10079 10081 10084 10087 10089
10199 10193 10187 10182 10177 10172 10167 10161 10156 10152 10149 10145 10141 10138 10136 10132 10129 10126 10122 10117 10112 10108 10106 10104 10102 10099 10097 10094 10092 10091 10090 10088 10086 10082 10079 10076 10074 10072 10071 10070 10069 10068 10067 10066 10066 10064 10063 10062 10061 10059 10057 10056 10055 10054 10053 10053 10052 10052 10053 10053 10053 10053 10052 10052 10052 10052 10052 10052 10052 10053 10054 10055 10056 10057 10059 10060 10062 10064 10066 10067 10069 10071 10074 10076 10077 10079
10187 10182 10176 10171 10166 10161 10156 10152 10147 10143 10139 10136 10132 10129 10126 10123 10120 10117 10114 10110 10105 10101 10097 10096 10093 10091 10088 10087 10086 10084 10082 10080 10076 10073 10069 10067 10066 10065 10064 10063 10062 10061 10060 10059 10057 10056 10055 10053 10052 10051 10049 10048 10047 10046 10046 10045 10044 10044 10044 10045 10045 10045 10045 10044 10044 10044 10044 10045 10045 10046 10046 10047 10048 10049 10051 10052 10054 10056 10057 10059 10060 10062 10065 10066 10067 10069
10177 10171 10166 10161 10155 10150 10146 10142 10138 10134 10131 10127 10124 10121 10117 10114 10111 10108 10106 10102 10099 10094 10091 10087 10084 10082 10080 10079 10078 10077 10075 10071 10067 10064 10061 10059 10057 10057 10057 10057 10056 10054 10053 10051 10050 10048 10046 10045 10043 10042 10041 10039 10039 10038 10037 10037 10037 10037 10036 10037 10037 10037 10037 10037 10037 10037 10037 10037 10038 10038 10039 10040 10041 10041 10042 10044 10046 10047 10048 10049 10051 10054 10056 10057 10059 10061
10167 10162 10156 10151 10145 10141 10136 10132 10129 10126 10122 10119 10116 10112 10109 10104 10101 10099 10097 10094 10091 10087 10084 10081 10077 10074 10072 10071 10071 10070 10067 10063 10059 10055 10052 10051 10051 10051 10051 10050 10049 10047 10045 10044 10041 10039 10038 10037 10035 10034 10032 10032 10031 10031 10031 10030 10029 10029 10029 10029 10029 10029 10029 10029 10029 10029 10030 10030 10031 10031 10031 10032 10033 10034 10035 10036 10037 10039 10040 10041 10044 10046 10047 10049 10051 10052
10157 10152 10146 10141 10136 10131 10127 10124 10121 10118 10115 10111 10107 10104 10100 10097 10094 10091 10089 10086 10083 10080 10077 10074 10070 10067 10064 10064 10064 10062 10060 10056 10051 10047 10045 10044 10044 10045 10045 10044 10041 10039 10037 10035 10033 10031 10031 10029 10027 10026 10026 10025 10024 10024 10023 10022 10022 10021 10021 10021 10021 10021 10021 10022 10022 10022 10022 10022 10023 10023 10024 10024 10026 10026 10027 10028 10029 10030 10031 10033 10035 10037 10039 10041 10042 10044
10148 10142 10137 10132 10127 10124 10119 10116 10114 10111 10107 10103 10099 10096 10092 10089 10086 10084 10081 10079 10076 10072 10069 10066 10063 10060 10057 10056 10056 10055 10052 10048 10044 10041 10038 10037 10038 10039 10039 10037 10034 10031 10028 10027 10026 10024 10024 10022 10021 10020 10019 10018 10017 10017 10016 10015 10014 10014 10014 10014 10014 10014 10014 10014 10014 10014 10015 10015 10016 10016 10017 10017 10017 10018 10019 10019 10021 10022 10023 10024 10026 10029 10030 10032 10034 10036
10138 10133 10128 10124 10120 10116 10112 10109 10106 10103 10099 10095 10091 10087 10084 10081 10079 10076 10074 10071 10068 10065 10062 10059 10056 10053 10050 10049 10048 10047 10045 10041 10037 10034 10032 10032 10032 10033 10032 10029 10026 10022 10021 10020 10019 10018 10017 10016 10014 10013 10012 10012 10011 10010 10009 10009 10008 10007 10007 10007 10007 10007 10007 10007 10007 10007 10007 10008 10009 10009 10009 10009 10010 10011 10011 10012 10013 10014 10015 10016 10018 10020 10022 10024 10026 10027
10129 10124 10119 10116 10113 10109 10105 10101 10098 10095 10091 10087 10083 10079 10077 10074 10072 10069 10067 10064 10061 10058 10056 10053 10051 10047 10044 10041 10040 10039 10037 10034 10031 10028 10027 10026 10026 10026 10025 10022 10019 10016 10014 10014 10013 10012 10011 10009 10007 10007 10006 10006 10004 10004 10003 10002 10002 10001 10001 10001 10001 10000 10000 10000 10000 10000 10001 10001 10001 10002 10002 10002 10003 10004 10004 10005 10006 10007 10008 10009 10011 10012 10014 10016 10017 10019
10120 10115 10111 10109 10105 10101 10097 10094 10091 10087 10084 10079 10076 10072 10069 10067 10065 10062 10060 10057 10054 10052 10049 10047 10044 10041 10038 10034 10032 10031 10030 10027 10024 10022 10021 10021 10020 10019 10018 10015 10012 10011 10009 10009 10007 10006 10004 10002 10001 10001 10000 9999 9999 9997 9997 9997 9996 9996 9995 9995 9994 9994 9994 9994 9994 9994 9994 9994 9995 9995 9996 9996 9997 9997 9997 9999 9999 10000 10001 10002 10004 10006 10007 10009 10011 10012
10111 10107 10104 10101 10097 10094 10089 10086 10082 10079 10076 10072 10069 10065 10062 10060 10057 10055 10052 10050 10048 10046 10043 10041 10037 10035 10032 10029 10026 10024 10022 10021 10018 10016 10015 10014 10014 10012 10011 10009 10007 10005 10004 10003 10002 10000 9999 9997 9996 9995 9994 9994 9993 9992 9992 9991 9991 9990 9989 9989 9988 9988 9988 9987 9987 9988 9988 9989 9989 9989 9990 9990 9991 9991 9992 9992 9993 9994 9995 9996 9997 9999 10001 10002 10004 10006
10104 10099 10096 10093 10090 10086 10082 10078 10075 10072 10068 10065 10062 10059 10056 10053 10050 10048 10046 10043 10041 10039 10037 10034 10032 10029 10026 10024 10021 10018 10016 10014 10012 10011 10009 10008 10007 10006 10005 10003 10001 10000 9999 9998 9996 9995 9993 9992 9991 9989 9989 9988 9987 9987 9986 9986 9985 9984 9984 9983 9983 9982 9982 9982 9982 9982 9982 9983 9983 9984 9984 9984 9985 9986 9986 9987 9987 9988 9989 9990 9991 9992 9994 9996 9998 9999
10097 10092 10088 10086 10082 10079 10074 10071 10067 10064 10061 10059 10056 10052 10049 10046 10044 10041 10039 10037 10034 10032 10030 10028 10026 10023 10021 10017 10015 10012 10011 10009 10007 10005 10004 10002 10002 10001 9999 9997 9996 9994 9994 9992 9991 9989 9988 9987 9986 9984 9984 9983 9982 9982 9981 9981 9980 9979 9979 9978 9978 9977 9977 9977 9977 9977 9977 9978 9978 9979 9979 9979 9979 9980 9981 9981 9982 9982 9984 9984 9986 9987 9988 9990 9992 9994
10089 10085 10081 10078 10075 10072 10068 10064 10061 10057 10055 10052 10049 10046 10043 10041 10037 10034 10032 10030 10027 10026 10024 10022 10019 10017 10015 10012 10009 10007 10005 10003 10001 10000 9999 9997 9996 9995 9994 9992 9991 9989 9989 9987 9986 9984 9983 9982 9981 9980 9979 9978 9977 9977 9976 9975 9975 9974 9974 9974 9973 9973 9972 9972 9972 9972 9972 9972 9973 9973 9974 9974 9974 9975 9976 9976 9977 9977 9978 9979 9980 9981 9982 9984 9986 9987
10082 10078 10074 10071 10067 10064 10061 10058 10054 10051 10048 10046 10042 10040 10037 10035 10032 10029 10026 10024 10021 10019 10017 10016 10014 10012 10009 10007 10004 10002 10000 9998 9996 9995 9994 9992 9991 9989 9989 9987 9986 9985 9984 9983 9981 9980 9979 9977 9976 9976 9975 9974 9973 9972 9971 9971 9970 9970 9969 9969 9969 9968 9968 9967 9967 9967 9967 9967 9968 9968 9969 9969 9969 9969 9970 9971 9971 9972 9973 9974 9975 9976 9977 9979 9980 9982
10075 10071 10067 10064 10061 10059 10055 10052 10048 10044 10041 10039 10036 10034 10031 10029 10026 10024 10021 10018 10016 10014 10011 10009 10007 10006 10004 10002 10000 9997 9995 9994 9992 9990 9989 9987 9986 9984 9984 9982 9982 9981 9979 9979 9977 9976 9974 9973 9972 9971 9971 9970 9969 9968 9967 9966 9966 9966 9965 9964 9964 9964 9963 9963 9963 9963 9963 9963 9963 9964 9964 9964 9964 9965 9966 9966 9966 9967 9968 9969 9969 9971 9972 9974 9975 9976
10069 10065 10062 10059 10055 10052 10049 10045 10042 10039 10036 10033 10030 10027 10025 10022 10021 10018 10016 10013 10011 10009 10006 10004 10002 10001 9999 9997 9996 9993 9991 9989 9988 9986 9984 9983 9981 9980 9979 9978 9977 9976 9975 9974 9973 9971 9970 9969 9968 9967 9967 9966 9965 9964 9963 9962 9962 9961 9961 9960 9960 9959 9959 9959 9959 9959 9959 9959 9959 9959 9959 9959 9960 9961 9961 9961 9962 9962 9963 9964 9965 9966 9967 9969 9969 9971
10063 10059 10056 10052 10049 10046 10042 10039 10036 10033 10031 10027 10024 10022 10019 10017 10015 10012 10011 10008 10006 10004 10002 10000 9998 9996 9995 9993 9991 9989 9987 9986 9984 9982 9981 9979 9977 9976 9975 9974 9973 9972 9971 9970 9969 9967 9966 9964 9964 9964 9962 9962 9961 9960 9959 9959 9958 9957 9957 9956 9956 9956 9956 9955 9955 9955 9954 9954 9955 9955 9955 9956 9956 9956 9956 9957 9957 9958 9959 9959 9961 9961 9962 9964 9965 9966
10057 10054 10050 10047 10044 10041 10037 10034 10031 10028 10026 10022 10020 10017 10014 10012 10010 10007 10006 10004 10002 10000 9998 9996 9994 9992 9991 9989 9987 9985 9983 9981 9980 9979 9977 9976 9974 9972 9971 9970 9969 9968 9967 9966 9965 9964 9962 9961 9960 9960 9959 9958 9957 9956 9956 9955 9954 9954 9953 9953 9952 9952 9952 9952 9951 9951 9951 9951 9951 9951 9951 9951 9952 9952 9952 9952 9953 9954 9954 9955 9956 9957 9958 9959 9960 9962
10051 10048 10044 10041 10038 10035 10032 10029 10026 10024 10021 10018 10015 10012 10010 10008 10006 10003 10001 9999 9998 9996 9994 9992 9990 9988 9986 9984 9983 9981 9979 9977 9976 9974 9974 9972 9971 9969 9967 9966 9966 9964 9964 9962 9961 9960 9959 9957 9957 9956 9956 9954 9954 9953 9952 9951 9951 9951 9950 9950 9949 9949 9949 9948 9948 9947 9947 9947 9947 9947 9947 9947 9947 9948 9948 9948 9949 9949 9950 9951 9952 9952 9954 9955 9956 9957
10046 10042 10039 10036 10033 10030 10027 10024 10021 10019 10016 10014 10011 10008 10006 10004 10002 9999 9997 9996 9994 9992 9991 9989 9987 9985 9982 9981 9979 9977 9976 9974 9972 9971 9970 9969 9967 9966 9964 9963 9962 9961 9960 9959 9958 9957 9956 9954 9953 9952 9952 9951 9951 9950 9949 9949 9948 9947 9947 9947 9946 9946 9946 9945 9945 9944 9944 9944 9944 9944 9944 9944 9944 9944 9944 9944 9945 9946 9946 9947 9947 9949 9949 9951 9952 9953
10040 10037 10034 10031 10028 10026 10022 10019 10017 10014 10012 10009 10007 10004 10002 10000 9998 9996 9994 9992 9991 9989 9987 9985 9984 9982 9979 9977 9976 9974 9972 9971 9969 9968 9967 9966 9964 9962 9961 9960 9959 9957 9957 9956 9955 9954 9952 9951 9950 9949 9949 9948 9947 9947 9946 9946 9945 9944 9944 9944 9943 9943 9942 9942 9942 9941 9941 9941 9941 9941 9941 9941 9941 9941 9941 9941 9941 9942 9942 9943 9944 9945 9946 9947 9948 9949
10035 10032 10029 10026 10024 10021 10018 10015 10012 10010 10007 10006 10003 10001 9999 9997 9994 9992 9991 9989 9987 9986 9984 9982 9980 9979 9977 9975 9972 9971 9969 9967 9967 9966 9964 9962 9961 9959 9958 9957 9956 9954 9954 9953 9952 9951 9949 9949 9947 9947 9946 9946 9945 9944 9944 9943 9942 9942 9941 9941 9940 9940 9939 9939 9939 9939 9938 9938 9938 9937 9937 9937 9937 9937 9937 9937 9937 9938 9939 9939 9940 9941 9942 9943 9944 9946
10031 10028 10025 10022 10019 10017 10014 10011 10009 10006 10004 10002 9999 9997 9996 9993 9991 9989 9987 9986 9984 9982 9981 9979 9977 9976 9974 9972 9971 9968 9966 9964 9964 9962 9961 9960 9958 9956 9956 9954 9953 9951 9951 9950 9949 9949 9947 9946 9945 9944 9944 9943 9942 9942 9941 9941 9940 9939 9939 9938 9937 9937 9937 9936 9936 9936 9936 9936 9935 9935 9934 9934 9934 9934 9934 9934 9935 9935 9936 9936 9937 9938 9939 9940 9941 9942
10026 10023 10021 10018 10016 10012 10010 10007 10005 10002 10000 9998 9996 9994 9992 9990 9988 9986 9984 9982 9981 9979 9977 9976 9974 9972 9971 9969 9968 9966 9964 9962 9961 9959 9959 9957 9956 9954 9953 9952 9951 9949 9948 9947 9946 9946 9945 9944 9943 9942 9942 9941 9940 9939 9939 9938 9937 9937 9936 9936 9935 9935 9934 9934 9934 9933 9933 9932 9932 9932 9932 9932 9932 9932 9932 9932 9932 9932 9933 9934 9934 9935 9936 9937 9939 9940
10022 10019 10016 10014 10011 10009 10006 10004 10001 9999 9997 9995 9992 9991 9989 9987 9985 9983 9981 9979 9977 9976 9974 9972 9971 9969 9967 9966 9964 9963 9962 9960 9959 9957 9956 9955 9953 9952 9951 9949 9948 9947 9946 9944 9944 9942 9942 9941 9941 9940 9939 9939 9937 9937 9936 9936 9935 9934 9934 9934 9933 9932 9932 9932 9931 9931 9931 9931 9930 9930 9929 9929 9929 9929 9929 9929 9930 9930 9931 9931 9932 9932 9934 9934 9936 9937
10017 10015 10012 10010 10007 10005 10002 10000 9997 9996 9994 9991 9989 9987 9986 9984 9982 9980 9978 9977 9975 9973 9971 9970 9968 9966 9965 9963 9962 9960 9959 9957 9956 9955 9954 9952 9951 9949 9948 9947 9946 9945 9944 9942 9941 9941 9940 9939 9939 9938 9937 9936 9936 9935 9934 9934 9933 9932 9932 9931 9931 9931 9930 9930 9929 9929 9929 9928 9928 9927 9927 9927 9927 9927 9927 9927 9927 9927 9928 9929 9929 9930 9931 9932 9934 9935
10014 10011 10009 10006 10004 10001 9999 9997 9994 9992 9991 9988 9986 9984 9982 9981 9979 9977 9976 9974 9972 9971 9969 9967 9966 9964 9962 9961 9959 9957 9956 9955 9954 9952 9951 9950 9949 9947 9946 9944 9943 9942 9942 9941 9939 9939 9938 9937 9936 9936 9935 9934 9933 9932 9932 9932 9931 9931 9930 9930 9929 9929 9929 9928 9927 9927 9927 9926 9926 9926 9926 9925 9925 9925 9925 9925 9926 9926 9926 9927 9927 9928 9929 9931 9932 9933
10010 10007 10005 10002 10001 9998 9996 9994 9991 9989 9987 9986 9984 9982 9980 9978 9976 9974 9973 9971 9969 9968 9966 9965 9963 9962 9961 9959 9957 9956 9954 9952 9951 9950 9949 9947 9947 9946 9944 9942 9941 9941 9940 9939 9937 9937 9936 9936 9934 9934 9933 9932 9932 9931 9931 9930 9929 9929 9929 9928 9927 9927 9927 9927 9926 9926 9925 9925 9924 9924 9924 9924 9924 9924 9924 9924 9924 9924 9925 9925 9926 9926 9927 9929 9930 9931
10006 10004 10002 9999 9997 9995 9993 9991 9989 9987 9985 9983 9981 9979 9977 9976 9974 9972 9971 9969 9967 9966 9964 9962 9961 9959 9958 9957 9956 9954 9952 9951 9949 9948 9947 9946 9944 9943 9942 9941 9939 9939 9938 9937 9936 9935 9934 9934 9932 9931 9931 9931 9930 9929 9929 9928 9928 9927 9927 9927 9926 9926 9926 9925 9925 9924 9924 9924 9923 9922 9922 9922 9922 9922 9922 9922 9923 9923 9924 9924 9924 9925 9926 9927 9928 9929
10003 10001 9998 9996 9994 9992 9990 9988 9986 9984 9982 9981 9979 9977 9975 9973 9972 9970 9968 9967 9965 9964 9962 9960 9959 9957 9956 9954 9953 9952 9951 9949 9947 9946 9945 9943 9942 9941 9940 9939 9937 9937 9936 9935 9934 9934 9932 9932 9931 9930 9929 9929 9929 9928 9927 9927 9927 9926 9926 9926 9925 9924 9924 9924 9923 9923 9923 9922 9922 9922 9921 9921 9921 9921 9921 9921 9922 9922 9922 9922 9923 9924 9924 9926 9927 9928
10000 9997 9996 9993 9991 9989 9987 9985 9983 9981 9979 9977 9976 9974 9973 9971 9970 9968 9966 9965 9963 9961 9960 9958 9957 9955 9954 9952 9951 9950 9949 9947 9946 9944 9943 9942 9941 9939 9939 9937 9936 9935 9934 9934 9932 9932 9931 9930 9929 9929 9929 9928 9927 9927 9926 9926 9926 9925 9924 9924 9924 9923 9923 9922 9922 9922 9922 9921 9921 9921 9921 9920 9920 9920 9920 9921 9921 9921 9922 9922 9922 9923 9924 9924 9926 9927
9997 9995 9992 9991 9988 9986 9984 9982 9981 9979 9977 9975 9974 9972 9971 9969 9967 9966 9964 9963 9961 9960 9958 9957 9955 9954 9952 9951 9949 9947 9947 9946 9944 9943 9942 9940 9939 9937 9937 9936 9935 9934 9933 9932 9931 9931 9929 9929 9928 9927 9927 9927 9926 9926 9926 9925 9924 9924 9924 9923 9923 9922 9922 9921 9921 9921 9921 9921 9921 9920 9920 9919 9919 9919 9919 9920 9921 9921 9921 9921 9922 9922 9923 9924 9925 9926
9994 9992 9990 9988 9986 9984 9982 9980 9978 9976 9975 9973 9971 9970 9968 9967 9966 9964 9962 9961 9960 9958 9957 9955 9954 9952 9951 9949 9947 9946 9945 9944 9942 9941 9940 9939 9937 9936 9936 9934 9934 9932 9932 9931 9930 9929 9928 9927 9927 9927 9926 9926 9926 9925 9924 9924 9924 9923 9923 9922 9922 9922 9921 9921 9921 9921 9920 9920 9920 9920 9919 9919 9919 9919 9919 9919 9919 9920 9921 9921 9922 9922 9923 9924 9925 9926
9992 9989 9987 9986 9984 9982 9980 9978 9976 9974 9972 9971 9969 9967 9966 9965 9963 9962 9961 9959 9958 9956 9955 9954 9952 9951 9949 9947 9946 9945 9944 9942 9941 9940 9939 9937 9936 9935 9934 9933 9932 9931 9931 9930 9929 9928 9927 9927 9926 9926 9925 9925 9924 9924 9923 9923 9922 9922 9922 9922 9922 9921 9921 9920 9920 9920 9920 9920 9919 9919 9919 9919 9919 9919 9919 9919 9919 9919 9920 9921 9922 9922 9924 9924 9925 9926
9989 9987 9986 9983 9981 9979 9977 9976 9974 9972 9971 9969 9967 9966 9964 9962 9961 9960 9959 9957 9956 9954 9953 9952 9951 9949 9947 9946 9945 9944 9942 9941 9940 9939 9937 9936 9935 9934 9933 9932 9931 9930 9929 9929 9928 9927 9926 9926 9925 9925 9924 9924 9923 9923 9922 9922 9922 9922 9921 9921 9921 9921 9920 9919 9919 9919 9919 9919 9919 9919 9919 9919 9919 9919 9919 9919 9919 9920 9920 9921 9921 9922 9924 9924 9926 9927
9987 9985 9983 9981 9979 9977 9976 9974 9972 9971 9969 9967 9966 9964 9962 9961 9959 9958 9957 9955 9954 9952 9951 9950 9949 9947 9946 9945 9944 9942 9941 9940 9939 9937 9936 9935 9934 9933 9932 9931 9930 9929 9928 9927 9927 9926 9926 9925 9924 9924 9923 9922 9922 9922 9922 9922 9922 9921 9921 9921 9920 9920 9919 9919 9919 9919 9919 9919 9919 9919 9919 9919 9919 9919 9919 9919 9919 9920 9921 9921 9921 9922 9923 9925 9926 9927
9985 9983 9981 9979 9977 9976 9974 9972 9971 9969 9967 9966 9964 9962 9961 9959 9957 9956 9955 9954 9952 9951 9949 9948 9947 9946 9944 9943 9942 9941 9940 9939 9937 9936 9935 9934 9933 9932 9931 9930 9929 9928 9927 9927 9926 9926 9925 9924 9924 9923 9922 9922 9922 9921 9921 9921 9921 9921 9920 9920 9919 9919 9919 9919 9919 9919 9919 9919 9919 9919 9919 9920 9920 9920 9920 9920 9920 9921 9921 9921 9922 9922 9924 9925 9926 9927
9982 9981 9979 9977 9976 9974 9972 9970 9969 9967 9965 9964 9962 9961 9959 9957 9956 9955 9953 9952 9951 9949 9948 9947 9946 9944 9943 9942 9941 9939 9938 9937 9936 9935 9934 9933 9932 9931 9930 9929 9928 9927 9927 9926 9925 9924 9924 9923 9923 9922 9922 9921 9921 9921 9921 9921 9921 9921 9920 9919 9919 9919 9919 9919 9919 9919 9919 9919 9919 9920 9920 9920 9920 9921 9921 9921 9921 9921 9921 9922 9922 9924 9924 9926 9927 9929
9981 9979 9977 9975 9974 9972 9970 9968 9967 9965 9964 9962 9961 9959 9957 9956 9954 9953 9952 9951 9949 9948 9947 9946 9944 9943 9942 9941 9939 9938 9937 9936 9934 9934 9932 9932 9931 9930 9929 9928 9927 9927 9926 9925 9924 9924 9923 9922 9922 9922 9921 9921 9921 9921 9920 9920 9920 9920 9920 9920 9919 9919 9919 9919 9919 9919 9919 9919 9920 9920 9920 9921 9921 9921 9921 9922 9922 9922 9922 9923 9924 9924 9926 9927 9928 9929
9979 9977 9975 9973 9972 9970 9968 9967 9965 9964 9962 9961 9959 9957 9956 9954 9953 9952 9950 9949 9948 9947 9946 9944 9943 9942 9941 9939 9938 9937 9936 9935 9934 9932 9931 9931 9930 9929 9928 9927 9927 9926 9925 9924 9924 9923 9922 9922 9922 9921 9921 9921 9921 9920 9920 9920 9920 9921 9921 9920 9920 9919 9919 9919 9919 9919 9920 9920 9920 9921 9921 9921 9922 9922 9922 9923 9923 9924 9924 9924 9925 9926 9926 9927 9929 9931
9976 9974 9973 9971 9970 9968 9966 9965 9963 9962 9961 9959 9957 9956 9954 9953 9951 9950 9949 9947 9946 9945 9944 9943 9942 9941 9939 9938 9937 9936 9935 9934 9932 9931 9931 9930 9929 9928 9927 9927 9926 9925 9924 9924 9923 9922 9922 9922 9921 9921 9921 9921 9921 9920 9920 9920 9920 9920 9920 9920 9920 9920 9920 9920 9920 9920 9920 9921 9921 9921 9921 9922 9922 9922 9923 9924 9924 9925 9925 9926 9926 9927 9928 9929 9930 9932
9974 9972 9971 9969 9967 9966 9964 9963 9962 9960 9959 9957 9956 9954 9953 9952 9950 9949 9947 9946 9945 9944 9942 9942 9941 9939 9938 9937 9936 9935 9934 9932 9931 9931 9929 9929 9928 9927 9927 9926 9926 9924 9924 9923 9922 9922 9922 9921 9921 9921 9921 9921 9921 9921 9921 9921 9920 9920 9920 9920 9921 9921 9921 9921 9921 9921 9921 9921 9921 9922 9922 9922 9922 9923 9924 9925 9926 9926 9927 9927 9927 9928 9929 9931 9932 9933